,,Stat5,,Stat1,,Stat2,,Stat3,,Stat4,,Wind1,,Wind1,
time,status,PA1M_AVG,status,PR1M_SUM,status,RH1M_AVG,status,SR1M_AVG,status,TA1M_AVG,status,W1dAve1m,status,W1sAve1m,
2002-04-21, 00:00:01,VALID,917.187,VALID,0,VALID,96.9777,VALID,0.0169808,VALID,19.8558,VALID,81,VALID,1.08013,
2002-04-21, 00:01:00,VALID,917.198,VALID,0,VALID,96.8912,VALID,0.0169808,VALID,19.898,VALID,102,VALID,0.973606,
2002-04-21, 00:02:00,VALID,917.182,VALID,0,VALID,96.6407,VALID,0,VALID,19.9172,VALID,112,VALID,0.918359,
2002-04-21, 00:03:00,VALID,917.159,VALID,0,VALID,96.4894,VALID,0,VALID,19.9231,VALID,133,VALID,0.690947,
2002-04-21, 00:04:00,VALID,917.138,VALID,0,VALID,96.2338,VALID,0,VALID,19.9264,VALID,133,VALID,0.66838,
2002-04-21, 00:05:00,VALID,917.126,VALID,0,VALID,96.1231,VALID,0.0169808,VALID,19.9333,VALID,124,VALID,0.759014,
2002-04-21, 00:06:00,VALID,917.118,VALID,0,VALID,96.0481,VALID,0,VALID,19.9206,VALID,115,VALID,0.724712,
2002-04-21, 00:07:00,VALID,917.083,VALID,0,VALID,96.1905,VALID,0,VALID,19.904,VALID,115,VALID,0.789268,
2002-04-21, 00:08:00,VALID,917.09,VALID,0,VALID,96.3037,VALID,0.0169808,VALID,19.9433,VALID,115,VALID,0.799733,
2002-04-21, 00:09:00,VALID,917.075,VALID,0,VALID,96.0761,VALID,0.0339617,VALID,19.94,VALID,86,VALID,0.58734,
2002-04-21, 00:10:00,VALID,917.073,VALID,0,VALID,95.5433,VALID,0.0169808,VALID,19.8662,VALID,79,VALID,0.565378,
2002-04-21, 00:11:00,VALID,917.053,VALID,0,VALID,95.439,VALID,0,VALID,19.7984,VALID,77,VALID,0.535857,
2002-04-21, 00:12:00,VALID,917.051,VALID,0,VALID,95.6526,VALID,0.0169808,VALID,19.7489,VALID,73,VALID,0.804087,
2002-04-21, 00:13:00,VALID,917.036,VALID,0,VALID,96.1422,VALID,0.0169808,VALID,19.7556,VALID,84,VALID,1.02724,
2002-04-21, 00:14:00,VALID,917.022,VALID,0,VALID,96.675,VALID,0.0169808,VALID,19.7869,VALID,100,VALID,0.952703,
2002-04-21, 00:15:00,VALID,917.017,VALID,0,VALID,96.6852,VALID,0,VALID,19.8237,VALID,116,VALID,0.872461,
2002-04-21, 00:16:00,VALID,917.012,VALID,0,VALID,96.4665,VALID,0.0339617,VALID,19.7847,VALID,115,VALID,0.757366,
2002-04-21, 00:17:00,VALID,917.029,VALID,0,VALID,96.7093,VALID,0,VALID,19.7748,VALID,111,VALID,0.990473,
2002-04-21, 00:18:00,VALID,917.028,VALID,0,VALID,97.0069,VALID,0,VALID,19.8101,VALID,112,VALID,1.02103,
2002-04-21, 00:19:00,VALID,917.032,VALID,0,VALID,96.8975,VALID,0,VALID,19.8394,VALID,106,VALID,0.862995,
2002-04-21, 00:20:00,VALID,917.035,VALID,0,VALID,96.7386,VALID,0,VALID,19.8202,VALID,108,VALID,0.777238,
2002-04-21, 00:21:00,VALID,917.01,VALID,0,VALID,96.806,VALID,0.0339617,VALID,19.8073,VALID,107,VALID,0.730369,
2002-04-21, 00:22:00,VALID,917,VALID,0,VALID,96.7526,VALID,0.0339617,VALID,19.7947,VALID,108,VALID,0.587109,
2002-04-21, 00:23:00,VALID,916.986,VALID,0,VALID,96.4347,VALID,0.0169808,VALID,19.743,VALID,89,VALID,0.629018,
2002-04-21, 00:24:00,VALID,916.961,VALID,0,VALID,96.319,VALID,0.0509425,VALID,19.6682,VALID,77,VALID,0.683894,
2002-04-21, 00:25:00,VALID,916.941,VALID,0,VALID,96.2706,VALID,0,VALID,19.6336,VALID,57,VALID,0.509943,
2002-04-21, 00:26:00,VALID,916.923,VALID,0,VALID,96.319,VALID,0,VALID,19.5976,VALID,33,VALID,0.536106,
2002-04-21, 00:27:00,VALID,916.915,VALID,0,VALID,96.5593,VALID,0,VALID,19.5852,VALID,23,VALID,0.777755,
2002-04-21, 00:28:00,VALID,916.903,VALID,0,VALID,96.8642,VALID,0.0169808,VALID,19.5939,VALID,14,VALID,0.94668,
2002-04-21, 00:29:00,VALID,916.882,VALID,0,VALID,97.0705,VALID,0.0169808,VALID,19.604,VALID,11,VALID,0.7883,
2002-04-21, 00:30:00,VALID,916.865,VALID,0,VALID,97.1213,VALID,0,VALID,19.6073,VALID,346,VALID,0.488051,
2002-04-21, 00:31:00,VALID,916.841,VALID,0,VALID,97.2752,VALID,0.0339617,VALID,19.6359,VALID,263,VALID,0.516892,
2002-04-21, 00:32:00,VALID,916.834,VALID,0,VALID,97.3388,VALID,0.0169808,VALID,19.6525,VALID,264,VALID,0.685547,
2002-04-21, 00:33:00,VALID,916.802,VALID,0,VALID,97.3858,VALID,0,VALID,19.6555,VALID,260,VALID,0.535051,
2002-04-21, 00:34:00,VALID,916.772,VALID,0,VALID,97.4049,VALID,0,VALID,19.6592,VALID,262,VALID,0.0857319,
2002-04-21, 00:35:00,VALID,916.759,VALID,0,VALID,97.3782,VALID,0.0169808,VALID,19.6592,VALID,262,VALID,0,
2002-04-21, 00:36:00,VALID,916.723,VALID,0,VALID,97.1302,VALID,0,VALID,19.6267,VALID,262,VALID,0.115854,
2002-04-21, 00:37:00,VALID,916.709,VALID,0,VALID,96.9459,VALID,0.0169808,VALID,19.5713,VALID,262,VALID,0.0574449,
2002-04-21, 00:38:00,VALID,916.692,VALID,0,VALID,96.9891,VALID,0.0339617,VALID,19.5588,VALID,262,VALID,0.0557432,
2002-04-21, 00:39:00,VALID,916.685,VALID,0,VALID,97.1455,VALID,0,VALID,19.5685,VALID,262,VALID,0,
2002-04-21, 00:40:00,VALID,916.656,VALID,0,VALID,97.1582,VALID,0.0339617,VALID,19.5785,VALID,261,VALID,0.184755,
2002-04-21, 00:41:01,VALID,916.643,VALID,0,VALID,97.0514,VALID,0.0339617,VALID,19.5752,VALID,115,VALID,0.539474,
2002-04-21, 00:42:00,VALID,916.611,VALID,0,VALID,96.9166,VALID,0.0169808,VALID,19.5335,VALID,102,VALID,0.403783,
2002-04-21, 00:43:00,VALID,916.592,VALID,0,VALID,96.9039,VALID,0,VALID,19.5071,VALID,115,VALID,0.318216,
2002-04-21, 00:44:00,VALID,916.588,VALID,0,VALID,96.7856,VALID,0.0509425,VALID,19.4686,VALID,130,VALID,0.326976,
2002-04-21, 00:45:00,VALID,916.571,VALID,0,VALID,96.6407,VALID,0,VALID,19.4192,VALID,137,VALID,0.310389,
2002-04-21, 00:46:00,VALID,916.568,VALID,0,VALID,96.633,VALID,0.0169808,VALID,19.3816,VALID,132,VALID,0.57373,
2002-04-21, 00:47:00,VALID,916.565,VALID,0,VALID,96.6954,VALID,0.0169808,VALID,19.3392,VALID,124,VALID,0.48353,
2002-04-21, 00:48:00,VALID,916.575,VALID,0,VALID,96.8899,VALID,0.0169808,VALID,19.3136,VALID,128,VALID,0.842928,
2002-04-21, 00:49:00,VALID,916.567,VALID,0,VALID,97.2371,VALID,0,VALID,19.3362,VALID,135,VALID,0.963816,
2002-04-21, 00:50:00,VALID,916.555,VALID,0,VALID,97.6084,VALID,0.0169808,VALID,19.3717,VALID,147,VALID,1.26696,
2002-04-21, 00:51:00,VALID,916.531,VALID,0,VALID,97.8373,VALID,0.0339617,VALID,19.4555,VALID,142,VALID,1.1636,
2002-04-21, 00:52:00,VALID,916.51,VALID,0,VALID,97.6961,VALID,0,VALID,19.5143,VALID,137,VALID,0.760769,
2002-04-21, 00:53:00,VALID,916.478,VALID,0,VALID,97.6872,VALID,0,VALID,19.5007,VALID,144,VALID,1.17566,
2002-04-21, 00:54:00,VALID,916.461,VALID,0,VALID,97.6465,VALID,0,VALID,19.5367,VALID,143,VALID,1.04307,
2002-04-21, 00:55:00,VALID,916.445,VALID,0,VALID,97.6287,VALID,0,VALID,19.5529,VALID,136,VALID,0.97389,
2002-04-21, 00:56:00,VALID,916.44,VALID,0,VALID,97.6707,VALID,0,VALID,19.5693,VALID,137,VALID,1.19984,
2002-04-21, 00:57:00,VALID,916.427,VALID,0,VALID,97.7444,VALID,0,VALID,19.5886,VALID,132,VALID,1.28068,
2002-04-21, 00:58:00,VALID,916.408,VALID,0,VALID,97.6898,VALID,0,VALID,19.5914,VALID,125,VALID,0.753906,
2002-04-21, 00:59:00,VALID,916.383,VALID,0,VALID,97.6669,VALID,0.0339617,VALID,19.5814,VALID,123,VALID,0.884291,
2002-04-21, 01:00:00,VALID,916.368,VALID,0,VALID,97.7228,VALID,0.0169808,VALID,19.5715,VALID,121,VALID,0.779541,
2002-04-21, 01:01:00,VALID,916.333,VALID,0,VALID,97.6885,VALID,0,VALID,19.5752,VALID,121,VALID,0.791596,
2002-04-21, 01:02:00,VALID,916.293,VALID,0,VALID,97.6618,VALID,0,VALID,19.5688,VALID,120,VALID,0.632813,
2002-04-21, 01:03:00,VALID,916.281,VALID,0,VALID,97.6719,VALID,0,VALID,19.5593,VALID,117,VALID,0.622122,
2002-04-21, 01:04:00,VALID,916.263,VALID,0,VALID,97.677,VALID,0.0169808,VALID,19.5623,VALID,118,VALID,0.804306,
2002-04-21, 01:05:00,VALID,916.26,VALID,0,VALID,97.7203,VALID,0,VALID,19.5725,VALID,119,VALID,0.845129,
2002-04-21, 01:06:00,VALID,916.266,VALID,0,VALID,97.7101,VALID,0,VALID,19.5881,VALID,119,VALID,0.897804,
2002-04-21, 01:07:00,VALID,916.284,VALID,0,VALID,97.6376,VALID,-0.0169808,VALID,19.6108,VALID,121,VALID,0.910038,
2002-04-21, 01:08:00,VALID,916.288,VALID,0,VALID,97.6224,VALID,-0.101885,VALID,19.6416,VALID,122,VALID,1.04835,
2002-04-21, 01:09:00,VALID,916.287,VALID,0,VALID,97.4329,VALID,-0.101885,VALID,19.6711,VALID,127,VALID,0.778166,
2002-04-21, 01:10:00,VALID,916.292,VALID,0,VALID,97.3248,VALID,-0.101885,VALID,19.6669,VALID,136,VALID,0.884457,
2002-04-21, 01:11:00,VALID,916.294,VALID,0,VALID,97.2968,VALID,-0.101885,VALID,19.6739,VALID,133,VALID,0.833841,
2002-04-21, 01:12:00,VALID,916.289,VALID,0,VALID,97.2383,VALID,-0.101885,VALID,19.6808,VALID,128,VALID,0.693015,
2002-04-21, 01:13:00,VALID,916.278,VALID,0,VALID,97.2701,VALID,-0.101885,VALID,19.6545,VALID,122,VALID,0.903083,
2002-04-21, 01:14:00,VALID,916.267,VALID,0,VALID,97.2383,VALID,-0.101885,VALID,19.6542,VALID,124,VALID,0.729004,
2002-04-21, 01:15:00,VALID,916.254,VALID,0,VALID,97.3019,VALID,-0.101885,VALID,19.6677,VALID,115,VALID,1.08361,
2002-04-21, 01:16:00,VALID,916.246,VALID,0,VALID,97.2752,VALID,-0.101885,VALID,19.6575,VALID,113,VALID,1.34293,
2002-04-21, 01:17:00,VALID,916.232,VALID,0,VALID,97.3858,VALID,-0.101885,VALID,19.6741,VALID,103,VALID,1.38158,
2002-04-21, 01:18:00,VALID,916.221,VALID,0,VALID,97.4621,VALID,-0.0849042,VALID,19.6965,VALID,92,VALID,1.27039,
2002-04-21, 01:19:00,VALID,916.205,VALID,0,VALID,97.2676,VALID,-0.101885,VALID,19.7034,VALID,85,VALID,0.930607,
2002-04-21, 01:20:00,VALID,916.197,VALID,0,VALID,97.2561,VALID,-0.101885,VALID,19.6803,VALID,103,VALID,1.06081,
2002-04-21, 01:21:00,VALID,916.187,VALID,0,VALID,97.3731,VALID,-0.0679233,VALID,19.7032,VALID,109,VALID,0.89536,
2002-04-21, 01:22:00,VALID,916.179,VALID,0,VALID,97.3006,VALID,-0.0849042,VALID,19.6925,VALID,113,VALID,1.01161,
2002-04-21, 01:23:00,VALID,916.178,VALID,0,VALID,97.2663,VALID,0.0169808,VALID,19.6918,VALID,98,VALID,0.777138,
2002-04-21, 01:24:00,VALID,916.173,VALID,0,VALID,97.2167,VALID,0,VALID,19.6826,VALID,107,VALID,0.684005,
2002-04-21, 01:25:00,VALID,916.17,VALID,0,VALID,97.2307,VALID,0,VALID,19.656,VALID,140,VALID,1.02058,
2002-04-21, 01:26:00,VALID,916.158,VALID,0,VALID,97.2536,VALID,0,VALID,19.65,VALID,147,VALID,1.61834,
2002-04-21, 01:27:00,VALID,916.146,VALID,0,VALID,97.3159,VALID,0.0169808,VALID,19.6078,VALID,146,VALID,1.70038,
2002-04-21, 01:28:00,VALID,916.131,VALID,0,VALID,97.5003,VALID,0,VALID,19.572,VALID,140,VALID,1.47876,
2002-04-21, 01:29:00,VALID,916.151,VALID,0,VALID,97.6084,VALID,0,VALID,19.53,VALID,144,VALID,1.22234,
2002-04-21, 01:30:00,VALID,916.148,VALID,0,VALID,97.7838,VALID,0,VALID,19.5012,VALID,146,VALID,1.51316,
2002-04-21, 01:31:00,VALID,916.148,VALID,0,VALID,97.925,VALID,0,VALID,19.4753,VALID,149,VALID,1.14042,
2002-04-21, 01:32:00,VALID,916.165,VALID,0,VALID,98.0674,VALID,0,VALID,19.4656,VALID,141,VALID,1.15244,
2002-04-21, 01:33:00,VALID,916.172,VALID,0,VALID,98.1475,VALID,0,VALID,19.4592,VALID,154,VALID,1.11903,
2002-04-21, 01:34:00,VALID,916.174,VALID,0,VALID,98.2175,VALID,0.0169808,VALID,19.4428,VALID,157,VALID,0.982897,
2002-04-21, 01:35:00,VALID,916.151,VALID,0,VALID,98.2696,VALID,0,VALID,19.4331,VALID,148,VALID,0.474195,
2002-04-21, 01:36:00,VALID,916.152,VALID,0,VALID,98.3281,VALID,0,VALID,19.4366,VALID,127,VALID,0.417652,
2002-04-21, 01:37:00,VALID,916.136,VALID,0,VALID,98.3599,VALID,0,VALID,19.4199,VALID,115,VALID,0.248972,
2002-04-21, 01:38:00,VALID,916.125,VALID,0,VALID,98.4006,VALID,0,VALID,19.4202,VALID,107,VALID,0.636924,
2002-04-21, 01:39:00,VALID,916.088,VALID,0,VALID,98.4514,VALID,0.0169808,VALID,19.4398,VALID,99,VALID,0.587271,
2002-04-21, 01:40:00,VALID,916.07,VALID,0,VALID,98.5112,VALID,0.0169808,VALID,19.4726,VALID,113,VALID,0.521369,
2002-04-21, 01:41:00,VALID,916.044,VALID,0,VALID,98.5036,VALID,0,VALID,19.4808,VALID,85,VALID,0.534417,
2002-04-21, 01:42:00,VALID,916.028,VALID,0,VALID,98.4514,VALID,0.0169808,VALID,19.5168,VALID,93,VALID,0.0507813,
2002-04-21, 01:43:00,VALID,916.022,VALID,0,VALID,98.3993,VALID,0.0339617,VALID,19.5429,VALID,93,VALID,0,
2002-04-21, 01:44:00,VALID,916.017,VALID,0,VALID,98.3357,VALID,0,VALID,19.5755,VALID,93,VALID,0.0222039,
2002-04-21, 01:45:00,VALID,916.034,VALID,0,VALID,98.2404,VALID,0,VALID,19.5819,VALID,94,VALID,0.214433,
2002-04-21, 01:46:00,VALID,916.033,VALID,0,VALID,98.1628,VALID,0,VALID,19.5785,VALID,94,VALID,0.050686,
2002-04-21, 01:47:00,VALID,916.046,VALID,0,VALID,98.1005,VALID,0,VALID,19.5981,VALID,120,VALID,0.248162,
2002-04-21, 01:48:00,VALID,916.054,VALID,0,VALID,98.0178,VALID,0,VALID,19.6214,VALID,234,VALID,0.337204,
2002-04-21, 01:49:00,VALID,916.071,VALID,0,VALID,97.9059,VALID,-0.0169808,VALID,19.6209,VALID,285,VALID,0.144413,
2002-04-21, 01:50:00,VALID,916.082,VALID,0,VALID,97.836,VALID,-0.0169808,VALID,19.6242,VALID,286,VALID,0,
2002-04-21, 01:51:00,VALID,916.09,VALID,0,VALID,97.7559,VALID,-0.0339617,VALID,19.6145,VALID,286,VALID,0,
2002-04-21, 01:52:00,VALID,916.104,VALID,0,VALID,97.6173,VALID,0,VALID,19.6147,VALID,289,VALID,0.162007,
2002-04-21, 01:53:00,VALID,916.108,VALID,0,VALID,97.555,VALID,-0.0339617,VALID,19.5822,VALID,301,VALID,0.241997,
2002-04-21, 01:54:00,VALID,916.117,VALID,0,VALID,97.5473,VALID,-0.0509425,VALID,19.5988,VALID,302,VALID,0.0459559,
2002-04-21, 01:55:00,VALID,916.13,VALID,0,VALID,97.5054,VALID,0,VALID,19.5886,VALID,284,VALID,0.0377956,
2002-04-21, 01:56:00,VALID,916.125,VALID,0,VALID,97.5092,VALID,0.0169808,VALID,19.5914,VALID,284,VALID,0.0012207,
2002-04-21, 01:57:00,VALID,916.129,VALID,0,VALID,97.513,VALID,0,VALID,19.5946,VALID,284,VALID,0.245988,
2002-04-21, 01:58:00,VALID,916.109,VALID,0,VALID,97.4736,VALID,0,VALID,19.5981,VALID,125,VALID,0.311061,
2002-04-21, 01:59:00,VALID,916.075,VALID,0,VALID,97.555,VALID,0,VALID,19.6142,VALID,112,VALID,0.204564,
2002-04-21, 02:00:00,VALID,916.043,VALID,0,VALID,97.471,VALID,0.0169808,VALID,19.6145,VALID,112,VALID,0.430259,
2002-04-21, 02:01:00,VALID,916.012,VALID,0,VALID,97.663,VALID,-0.0169808,VALID,19.6331,VALID,114,VALID,0.589844,
2002-04-21, 02:02:00,VALID,915.985,VALID,0,VALID,97.5804,VALID,0,VALID,19.6853,VALID,115,VALID,0.673353,
2002-04-21, 02:03:00,VALID,915.983,VALID,0,VALID,97.5054,VALID,0,VALID,19.7211,VALID,110,VALID,0.847301,
2002-04-21, 02:04:00,VALID,915.983,VALID,0,VALID,97.4176,VALID,0,VALID,19.7631,VALID,95,VALID,0.880912,
2002-04-21, 02:05:00,VALID,915.981,VALID,0,VALID,97.0857,VALID,0,VALID,19.7922,VALID,67,VALID,0.946957,
2002-04-21, 02:06:00,VALID,915.986,VALID,0,VALID,96.6254,VALID,0,VALID,19.7464,VALID,41,VALID,1.07771,
2002-04-21, 02:07:00,VALID,915.985,VALID,0,VALID,96.4538,VALID,-0.0169808,VALID,19.7171,VALID,24,VALID,1.12214,
2002-04-21, 02:08:00,VALID,915.947,VALID,0,VALID,96.4932,VALID,0,VALID,19.7042,VALID,25,VALID,0.924862,
2002-04-21, 02:09:00,VALID,915.925,VALID,0,VALID,96.5224,VALID,0,VALID,19.695,VALID,23,VALID,0.614443,
2002-04-21, 02:10:00,VALID,915.884,VALID,0,VALID,96.5148,VALID,0,VALID,19.6756,VALID,23,VALID,0.462891,
2002-04-21, 02:11:00,VALID,915.849,VALID,0,VALID,96.5898,VALID,0.0169808,VALID,19.653,VALID,23,VALID,0.345228,
2002-04-21, 02:12:00,VALID,915.826,VALID,0,VALID,96.675,VALID,0,VALID,19.6562,VALID,23,VALID,0.395354,
2002-04-21, 02:13:00,VALID,915.794,VALID,0,VALID,96.7488,VALID,-0.0169808,VALID,19.6396,VALID,23,VALID,0.403783,
2002-04-21, 02:14:00,VALID,915.768,VALID,0,VALID,96.7895,VALID,0.0169808,VALID,19.65,VALID,23,VALID,0.169207,
2002-04-21, 02:15:00,VALID,915.726,VALID,0,VALID,96.8568,VALID,0,VALID,19.6403,VALID,23,VALID,0.146829,
2002-04-21, 02:16:00,VALID,915.691,VALID,0,VALID,96.9179,VALID,0.0169808,VALID,19.6498,VALID,23,VALID,0,
2002-04-21, 02:17:00,VALID,915.672,VALID,0,VALID,96.998,VALID,-0.0169808,VALID,19.6595,VALID,23,VALID,0,
2002-04-21, 02:18:00,VALID,915.63,VALID,0,VALID,96.9675,VALID,0,VALID,19.6726,VALID,25,VALID,0.395481,
2002-04-21, 02:19:00,VALID,915.603,VALID,0,VALID,96.8314,VALID,0,VALID,19.6431,VALID,41,VALID,1.01213,
2002-04-21, 02:20:00,VALID,915.578,VALID,0,VALID,96.8886,VALID,0,VALID,19.6401,VALID,50,VALID,1.15625,
2002-04-21, 02:21:00,VALID,915.547,VALID,0,VALID,96.923,VALID,0.0169808,VALID,19.6431,VALID,63,VALID,0.90815,
2002-04-21, 02:22:00,VALID,915.518,VALID,0,VALID,96.9598,VALID,0.0169808,VALID,19.6301,VALID,77,VALID,0.942096,
2002-04-21, 02:23:00,VALID,915.481,VALID,0,VALID,97.1302,VALID,-0.0169808,VALID,19.6632,VALID,94,VALID,1.18349,
2002-04-21, 02:24:00,VALID,915.448,VALID,0,VALID,97.0183,VALID,-0.0169808,VALID,19.6883,VALID,94,VALID,1.22168,
2002-04-21, 02:25:00,VALID,915.425,VALID,0,VALID,96.792,VALID,-0.0169808,VALID,19.7017,VALID,93,VALID,1.1497,
2002-04-21, 02:26:00,VALID,915.408,VALID,0,VALID,96.7564,VALID,0,VALID,19.7144,VALID,101,VALID,0.880757,
2002-04-21, 02:27:00,VALID,915.384,VALID,0,VALID,96.5122,VALID,-0.0339617,VALID,19.7174,VALID,74,VALID,0.504729,
2002-04-21, 02:28:00,VALID,915.365,VALID,0,VALID,96.4614,VALID,-0.0169808,VALID,19.7241,VALID,87,VALID,0.443598,
2002-04-21, 02:29:00,VALID,915.357,VALID,0,VALID,96.4347,VALID,-0.0509425,VALID,19.7273,VALID,90,VALID,0.347656,
2002-04-21, 02:30:00,VALID,915.351,VALID,0,VALID,96.4538,VALID,-0.0339617,VALID,19.7375,VALID,118,VALID,0.67272,
2002-04-21, 02:31:00,VALID,915.354,VALID,0,VALID,96.5046,VALID,-0.0169808,VALID,19.734,VALID,113,VALID,1.14394,
2002-04-21, 02:32:00,VALID,915.374,VALID,0,VALID,96.6229,VALID,-0.0169808,VALID,19.7367,VALID,108,VALID,0.973606,
2002-04-21, 02:33:00,VALID,915.392,VALID,0,VALID,96.6102,VALID,-0.0509425,VALID,19.7663,VALID,124,VALID,0.927015,
2002-04-21, 02:34:00,VALID,915.381,VALID,0,VALID,96.5746,VALID,-0.0339617,VALID,19.7623,VALID,125,VALID,0.575863,
2002-04-21, 02:35:00,VALID,915.373,VALID,0,VALID,96.511,VALID,-0.0169808,VALID,19.7693,VALID,129,VALID,0.544969,
2002-04-21, 02:36:00,VALID,915.371,VALID,0,VALID,96.5161,VALID,0,VALID,19.7596,VALID,124,VALID,0.664752,
2002-04-21, 02:37:00,VALID,915.368,VALID,0,VALID,96.6305,VALID,-0.0339617,VALID,19.7534,VALID,121,VALID,1.01964,
2002-04-21, 02:38:00,VALID,915.368,VALID,0,VALID,96.661,VALID,-0.118866,VALID,19.7482,VALID,136,VALID,0.570313,
2002-04-21, 02:39:00,VALID,915.379,VALID,0,VALID,96.6534,VALID,-0.118866,VALID,19.7353,VALID,147,VALID,0.747889,
2002-04-21, 02:40:00,VALID,915.403,VALID,0,VALID,96.6445,VALID,-0.118866,VALID,19.7054,VALID,136,VALID,0.585938,
2002-04-21, 02:41:00,VALID,915.425,VALID,0,VALID,96.717,VALID,-0.118866,VALID,19.6962,VALID,141,VALID,0.418586,
2002-04-21, 02:42:00,VALID,915.444,VALID,0,VALID,96.8568,VALID,-0.101885,VALID,19.6639,VALID,156,VALID,0.545922,
2002-04-21, 02:43:00,VALID,915.448,VALID,0,VALID,96.9675,VALID,-0.135847,VALID,19.6711,VALID,159,VALID,0.658778,
2002-04-21, 02:44:00,VALID,915.461,VALID,0,VALID,97.059,VALID,-0.101885,VALID,19.6607,VALID,160,VALID,0.862753,
2002-04-21, 02:45:00,VALID,915.472,VALID,0,VALID,97.1074,VALID,-0.135847,VALID,19.6612,VALID,174,VALID,0.939394,
2002-04-21, 02:46:00,VALID,915.47,VALID,0,VALID,97.1048,VALID,-0.118866,VALID,19.6545,VALID,164,VALID,0.940667,
2002-04-21, 02:47:00,VALID,915.465,VALID,0,VALID,97.0514,VALID,-0.135847,VALID,19.6386,VALID,167,VALID,1.05777,
2002-04-21, 02:48:00,VALID,915.443,VALID,0,VALID,97.0819,VALID,-0.152827,VALID,19.606,VALID,171,VALID,1.1655,
2002-04-21, 02:49:00,VALID,915.425,VALID,0,VALID,97.0501,VALID,-0.118866,VALID,19.5933,VALID,162,VALID,0.928544,
2002-04-21, 02:50:00,VALID,915.402,VALID,0,VALID,97.0997,VALID,-0.118866,VALID,19.5665,VALID,153,VALID,1.12615,
2002-04-21, 02:51:00,VALID,915.368,VALID,0,VALID,97.2371,VALID,-0.135847,VALID,19.5931,VALID,146,VALID,1.12584,
2002-04-21, 02:52:00,VALID,915.342,VALID,0,VALID,97.2307,VALID,-0.118866,VALID,19.6157,VALID,129,VALID,0.795166,
2002-04-21, 02:53:00,VALID,915.32,VALID,0,VALID,97.1201,VALID,-0.0679233,VALID,19.6242,VALID,117,VALID,0.9981,
2002-04-21, 02:54:00,VALID,915.304,VALID,0,VALID,97.059,VALID,-0.0679233,VALID,19.6696,VALID,98,VALID,1.08162,
2002-04-21, 02:55:00,VALID,915.295,VALID,0,VALID,96.7386,VALID,-0.0169808,VALID,19.7146,VALID,83,VALID,0.916324,
2002-04-21, 02:56:00,VALID,915.278,VALID,0,VALID,96.4296,VALID,-0.0339617,VALID,19.7278,VALID,93,VALID,0.807165,
2002-04-21, 02:57:00,VALID,915.268,VALID,0,VALID,96.3571,VALID,-0.0339617,VALID,19.7437,VALID,142,VALID,0.858456,
2002-04-21, 02:58:00,VALID,915.253,VALID,0,VALID,96.2274,VALID,0,VALID,19.7599,VALID,139,VALID,1.05342,
2002-04-21, 02:59:00,VALID,915.233,VALID,0,VALID,96.0481,VALID,-0.0509425,VALID,19.7499,VALID,117,VALID,0.579782,
2002-04-21, 03:00:00,VALID,915.234,VALID,0,VALID,95.8663,VALID,-0.0509425,VALID,19.7303,VALID,99,VALID,0.785684,
2002-04-21, 03:01:00,VALID,915.209,VALID,0,VALID,95.9833,VALID,-0.0339617,VALID,19.7211,VALID,103,VALID,0.810033,
2002-04-21, 03:02:00,VALID,915.202,VALID,0,VALID,95.9922,VALID,-0.0509425,VALID,19.7017,VALID,107,VALID,0.644942,
2002-04-21, 03:03:00,VALID,915.197,VALID,0,VALID,96.0316,VALID,-0.0169808,VALID,19.6823,VALID,108,VALID,0.842416,
2002-04-21, 03:04:00,VALID,915.177,VALID,0,VALID,96.1638,VALID,-0.0169808,VALID,19.6498,VALID,88,VALID,0.923483,
2002-04-21, 03:05:00,VALID,915.172,VALID,0,VALID,96.0748,VALID,-0.0679233,VALID,19.6177,VALID,82,VALID,0.893159,
2002-04-21, 03:06:00,VALID,915.178,VALID,0,VALID,96.221,VALID,-0.0679233,VALID,19.5725,VALID,89,VALID,1.06519,
2002-04-21, 03:07:00,VALID,915.17,VALID,0,VALID,96.4385,VALID,-0.0169808,VALID,19.5596,VALID,92,VALID,1.28062,
2002-04-21, 03:08:00,VALID,915.135,VALID,0,VALID,96.5682,VALID,0.0849042,VALID,19.5549,VALID,86,VALID,1.31414,
2002-04-21, 03:09:00,VALID,915.117,VALID,0,VALID,96.558,VALID,0.0849042,VALID,19.5519,VALID,75,VALID,1.36287,
2002-04-21, 03:10:00,VALID,915.092,VALID,0,VALID,96.4169,VALID,0.0679233,VALID,19.5258,VALID,63,VALID,1.19093,
2002-04-21, 03:11:00,VALID,915.055,VALID,0,VALID,96.2808,VALID,0.0679233,VALID,19.4965,VALID,63,VALID,1.39384,
2002-04-21, 03:12:00,VALID,915.026,VALID,0,VALID,96.2401,VALID,0.0509425,VALID,19.4612,VALID,74,VALID,1.31546,
2002-04-21, 03:13:00,VALID,915.026,VALID,0,VALID,96.3584,VALID,0.0509425,VALID,19.4582,VALID,78,VALID,1.34209,
2002-04-21, 03:14:00,VALID,915.023,VALID,0,VALID,96.5084,VALID,0.0679233,VALID,19.4483,VALID,93,VALID,1.11761,
2002-04-21, 03:15:00,VALID,915.02,VALID,0,VALID,96.5962,VALID,0.0509425,VALID,19.4515,VALID,105,VALID,0.79523,
2002-04-21, 03:16:00,VALID,915.024,VALID,0,VALID,96.7678,VALID,0.0679233,VALID,19.4679,VALID,127,VALID,1.18647,
2002-04-21, 03:17:00,VALID,915.025,VALID,0,VALID,96.8632,VALID,0,VALID,19.4907,VALID,140,VALID,1.33537,
2002-04-21, 03:18:00,VALID,915.022,VALID,0,VALID,96.867,VALID,0.0509425,VALID,19.5002,VALID,138,VALID,1.55469,
2002-04-21, 03:19:00,VALID,915.018,VALID,0,VALID,96.8975,VALID,0.0339617,VALID,19.49,VALID,143,VALID,1.64485,
2002-04-21, 03:20:00,VALID,915.029,VALID,0,VALID,96.9777,VALID,0.0849042,VALID,19.484,VALID,138,VALID,0.847656,
2002-04-21, 03:21:00,VALID,915.024,VALID,0,VALID,96.9764,VALID,0.0679233,VALID,19.4778,VALID,134,VALID,1.14379,
2002-04-21, 03:22:00,VALID,915.009,VALID,0,VALID,96.9598,VALID,0.0849042,VALID,19.4649,VALID,115,VALID,1.07936,
2002-04-21, 03:23:00,VALID,915.014,VALID,0,VALID,96.9192,VALID,0.0679233,VALID,19.4587,VALID,97,VALID,0.897821,
2002-04-21, 03:24:00,VALID,915.01,VALID,0,VALID,96.9827,VALID,0.0849042,VALID,19.445,VALID,108,VALID,1.03087,
2002-04-21, 03:25:00,VALID,915.037,VALID,0,VALID,96.998,VALID,0.0849042,VALID,19.4391,VALID,89,VALID,0.976563,
2002-04-21, 03:26:00,VALID,915.039,VALID,0,VALID,96.9586,VALID,0.0679233,VALID,19.4266,VALID,84,VALID,0.759079,
2002-04-21, 03:27:00,VALID,915.022,VALID,0,VALID,97.0171,VALID,0.0169808,VALID,19.4194,VALID,97,VALID,0.94697,
2002-04-21, 03:28:00,VALID,915.017,VALID,0,VALID,97.0527,VALID,0.0339617,VALID,19.4328,VALID,105,VALID,1.11001,
2002-04-21, 03:29:00,VALID,915.009,VALID,0,VALID,97.0018,VALID,0.0849042,VALID,19.4259,VALID,114,VALID,0.958265,
2002-04-21, 03:30:00,VALID,914.984,VALID,0,VALID,96.9764,VALID,0.0849042,VALID,19.4063,VALID,110,VALID,0.721012,
2002-04-21, 03:31:00,VALID,914.97,VALID,0,VALID,97.0222,VALID,0.0849042,VALID,19.4038,VALID,95,VALID,0.995046,
2002-04-21, 03:32:00,VALID,914.956,VALID,0,VALID,97.1264,VALID,0.0679233,VALID,19.413,VALID,101,VALID,1.10547,
2002-04-21, 03:33:00,VALID,914.951,VALID,0,VALID,97.1035,VALID,0.0849042,VALID,19.4321,VALID,90,VALID,0.871199,
2002-04-21, 03:34:00,VALID,914.927,VALID,0,VALID,96.942,VALID,0.0169808,VALID,19.4453,VALID,73,VALID,0.812256,
2002-04-21, 03:35:00,VALID,914.917,VALID,0,VALID,96.7691,VALID,0.0509425,VALID,19.4286,VALID,76,VALID,0.839105,